• In Hungary
  • List of Countries
  • For 7 days
  • Water Temperature
  • Satellite Maps
  • Weather Map
  • News
  • Weather Widgets
  • user-avatar
    Login

    Hourly Weather Kotow

    Today, 21 October, Sunday

    Time Temperature Precipitation Wind Pressure Humidity
    00:00 +5°C° 0.2 mm 4 mps 717 mmHg 84%
    01:00 +5°C° 0.2 mm 3 mps 717 mmHg 84%
    02:00 +4°C° 0.5 mm 3 mps 716 mmHg 86%
    03:00 +4°C° 0.5 mm 3 mps 716 mmHg 88%
    04:00 +3°C° 0.5 mm 3 mps 716 mmHg 90%
    05:00 +4°C° 0.6 mm 3 mps 716 mmHg 90%
    06:00 +4°C° 0.6 mm 3 mps 717 mmHg 90%
    07:00 +4°C° 0.6 mm 3 mps 717 mmHg 91%
    08:00 +5°C° 0.5 mm 3 mps 717 mmHg 90%
    09:00 +5°C° 0.5 mm 3 mps 718 mmHg 90%
    10:00 +5°C° 0.5 mm 3 mps 718 mmHg 89%
    11:00 +7°C° 0.1 mm 3 mps 718 mmHg 85%
    12:00 +8°C° 0.1 mm 3 mps 718 mmHg 81%
    13:00 +9°C° 0.1 mm 3 mps 718 mmHg 77%
    14:00 +9°C° 0 mm 3 mps 718 mmHg 77%
    15:00 +8°C° 0 mm 3 mps 718 mmHg 77%
    16:00 +8°C° 0 mm 2 mps 718 mmHg 77%
    17:00 +7°C° 0 mm 2 mps 719 mmHg 80%
    18:00 +6°C° 0 mm 2 mps 719 mmHg 83%
    19:00 +5°C° 0 mm 2 mps 719 mmHg 86%
    20:00 +5°C° 0 mm 2 mps 719 mmHg 87%
    21:00 +5°C° 0 mm 1 mps 719 mmHg 88%
    22:00 +5°C° 0 mm 1 mps 719 mmHg 88%
    23:00 +5°C° 0 mm 1 mps 719 mmHg 88%

    Tomorrow, 22 October, Monday

    Time Temperature Precipitation Wind Pressure Humidity
    00:00 +4°C° 0 mm 1 mps 719 mmHg 88%
    01:00 +4°C° 0 mm 1 mps 719 mmHg 88%
    02:00 +4°C° 0 mm 1 mps 719 mmHg 88%
    03:00 +4°C° 0 mm 1 mps 719 mmHg 88%
    04:00 +4°C° 0 mm 1 mps 719 mmHg 88%
    05:00 +4°C° 0 mm 1 mps 719 mmHg 86%
    06:00 +4°C° 0 mm 1 mps 719 mmHg 85%
    07:00 +4°C° 0 mm 1 mps 719 mmHg 84%
    08:00 +6°C° 0 mm 1 mps 719 mmHg 76%
    09:00 +8°C° 0 mm 1 mps 719 mmHg 67%
    10:00 +10°C° 0 mm 1 mps 719 mmHg 58%
    11:00 +11°C° 0 mm 1 mps 719 mmHg 56%
    12:00 +12°C° 0 mm 1 mps 719 mmHg 53%
    13:00 +13°C° 0 mm 1 mps 718 mmHg 50%
    14:00 +12°C° 0 mm 1 mps 718 mmHg 55%
    15:00 +11°C° 0 mm 1 mps 717 mmHg 60%
    16:00 +10°C° 0 mm 1 mps 717 mmHg 65%
    17:00 +9°C° 0 mm 1 mps 717 mmHg 69%
    18:00 +7°C° 0 mm 1 mps 717 mmHg 73%
    19:00 +6°C° 0 mm 1 mps 717 mmHg 78%
    20:00 +6°C° 0 mm 1 mps 717 mmHg 79%
    21:00 +6°C° 0 mm 1 mps 717 mmHg 81%
    22:00 +5°C° 0 mm 1 mps 717 mmHg 83%
    23:00 +4°C° 0.1 mm 2 mps 717 mmHg 83%

    Day after tomorrow, 23 October, Tuesday

    Time Temperature Precipitation Wind Pressure Humidity
    00:00 +5°C° 0.1 mm 2 mps 717 mmHg 83%
    01:00 +5°C° 0.1 mm 2 mps 717 mmHg 83%
    02:00 +5°C° 0.5 mm 2 mps 717 mmHg 85%
    03:00 +5°C° 0.5 mm 2 mps 717 mmHg 87%
    04:00 +5°C° 0.5 mm 3 mps 716 mmHg 88%
    05:00 +4°C° 0.1 mm 3 mps 717 mmHg 89%
    06:00 +3°C° 0.1 mm 3 mps 717 mmHg 89%
    07:00 +3°C° 0.1 mm 3 mps 717 mmHg 89%
    08:00 +4°C° 0 mm 3 mps 716 mmHg 83%
    09:00 +5°C° 0 mm 3 mps 716 mmHg 77%
    10:00 +5°C° 0 mm 3 mps 716 mmHg 70%
    11:00 +7°C° 0 mm 3 mps 715 mmHg 66%
    12:00 +8°C° 0 mm 3 mps 715 mmHg 61%
    13:00 +8°C° 0 mm 4 mps 714 mmHg 57%
    14:00 +8°C° 0.1 mm 3 mps 713 mmHg 60%
    15:00 +7°C° 0.1 mm 3 mps 712 mmHg 63%
    16:00 +7°C° 0.1 mm 3 mps 711 mmHg 66%
    17:00 +7°C° 0.4 mm 3 mps 710 mmHg 70%
    18:00 +5°C° 0.4 mm 4 mps 709 mmHg 73%
    19:00 +5°C° 0.4 mm 4 mps 708 mmHg 77%
    20:00 +5°C° 0.4 mm 5 mps 707 mmHg 77%
    21:00 +5°C° 0.4 mm 5 mps 706 mmHg 78%
    22:00 +4°C° 0.4 mm 6 mps 705 mmHg 79%
    23:00 +5°C° 0.6 mm 6 mps 704 mmHg 80%

    24 October, Wednesday

    Time Temperature Precipitation Wind Pressure Humidity
    00:00 +5°C° 0.6 mm 7 mps 703 mmHg 81%
    01:00 +5°C° 0.6 mm 7 mps 703 mmHg 82%
    02:00 +5°C° 1.2 mm 7 mps 702 mmHg 82%
    03:00 +5°C° 1.2 mm 6 mps 702 mmHg 81%
    04:00 +4°C° 1.2 mm 6 mps 702 mmHg 81%
    05:00 +4°C° 0.4 mm 7 mps 702 mmHg 79%
    06:00 +3°C° 0.4 mm 7 mps 702 mmHg 77%
    07:00 +1°C° 0.4 mm 8 mps 703 mmHg 75%
    08:00 +1°C° 0.3 mm 8 mps 703 mmHg 69%
    09:00 +1°C° 0.3 mm 8 mps 704 mmHg 64%
    10:00 +1°C° 0.3 mm 9 mps 704 mmHg 59%
    11:00 +1°C° 0.1 mm 8 mps 704 mmHg 56%
    12:00 +1°C° 0.1 mm 8 mps 704 mmHg 53%
    13:00 +2°C° 0.1 mm 8 mps 705 mmHg 50%
    14:00 +2°C° 0.1 mm 7 mps 705 mmHg 51%
    15:00 +2°C° 0.1 mm 6 mps 705 mmHg 53%
    16:00 +2°C° 0.1 mm 5 mps 705 mmHg 54%
    17:00 +1°C° 0.1 mm 5 mps 706 mmHg 57%
    18:00 +1°C° 0.1 mm 5 mps 706 mmHg 60%
    19:00 0°C° 0.1 mm 5 mps 707 mmHg 63%
    20:00 0°C° 0 mm 5 mps 707 mmHg 64%
    21:00 0°C° 0 mm 5 mps 707 mmHg 64%
    22:00 -1°C° 0 mm 5 mps 707 mmHg 65%
    23:00 -1°C° 0 mm 5 mps 707 mmHg 68%

    25 October, Thursday

    Time Temperature Precipitation Wind Pressure Humidity
    00:00 -1°C° 0 mm 5 mps 708 mmHg 70%
    01:00 -1°C° 0 mm 5 mps 708 mmHg 73%
    02:00 -1°C° 0 mm 5 mps 708 mmHg 75%
    03:00 -2°C° 0 mm 5 mps 708 mmHg 78%
    04:00 -2°C° 0 mm 5 mps 708 mmHg 80%
    05:00 -1°C° 0 mm 5 mps 709 mmHg 80%
    06:00 -1°C° 0 mm 4 mps 709 mmHg 80%
    07:00 -1°C° 0 mm 4 mps 709 mmHg 80%
    08:00 0°C° 0 mm 4 mps 709 mmHg 76%
    09:00 +3°C° 0 mm 4 mps 709 mmHg 71%
    10:00 +4°C° 0 mm 4 mps 709 mmHg 66%
    11:00 +4°C° 0.7 mm 4 mps 708 mmHg 73%
    12:00 +4°C° 0.7 mm 3 mps 707 mmHg 79%
    13:00 +4°C° 0.7 mm 3 mps 707 mmHg 85%
    14:00 +5°C° 1.3 mm 4 mps 707 mmHg 87%
    15:00 +5°C° 1.3 mm 4 mps 707 mmHg 88%
    16:00 +6°C° 1.3 mm 5 mps 707 mmHg 89%
    17:00 +6°C° 0.3 mm 5 mps 707 mmHg 89%
    18:00 +6°C° 0.3 mm 5 mps 707 mmHg 89%
    19:00 +5°C° 0.3 mm 5 mps 707 mmHg 90%
    20:00 +5°C° 0.1 mm 4 mps 708 mmHg 90%
    21:00 +5°C° 0.1 mm 4 mps 708 mmHg 91%
    22:00 +5°C° 0.1 mm 4 mps 708 mmHg 92%
    23:00 +5°C° 0 mm 4 mps 708 mmHg 92%

    26 October, Friday

    Time Temperature Precipitation Wind Pressure Humidity
    00:00 +5°C° 0 mm 4 mps 708 mmHg 92%
    01:00 +5°C° 0 mm 4 mps 708 mmHg 92%
    02:00 +5°C° 0 mm 3 mps 708 mmHg 91%
    03:00 +5°C° 0 mm 3 mps 708 mmHg 91%
    04:00 +5°C° 0 mm 3 mps 709 mmHg 91%
    05:00 +5°C° 0 mm 3 mps 709 mmHg 91%
    06:00 +4°C° 0 mm 3 mps 709 mmHg 91%
    07:00 +5°C° 0 mm 2 mps 709 mmHg 90%
    08:00 +7°C° 0 mm 2 mps 709 mmHg 84%
    09:00 +8°C° 0 mm 2 mps 709 mmHg 78%
    10:00 +10°C° 0 mm 2 mps 709 mmHg 71%
    11:00 +11°C° 0 mm 3 mps 709 mmHg 69%
    12:00 +11°C° 0 mm 3 mps 709 mmHg 66%
    13:00 +12°C° 0 mm 3 mps 708 mmHg 64%
    14:00 +11°C° 0 mm 3 mps 708 mmHg 68%
    15:00 +10°C° 0 mm 2 mps 708 mmHg 73%
    16:00 +9°C° 0 mm 2 mps 707 mmHg 77%
    17:00 +8°C° 0 mm 2 mps 707 mmHg 81%
    18:00 +7°C° 0 mm 2 mps 707 mmHg 84%
    19:00 +6°C° 0 mm 2 mps 706 mmHg 88%
    20:00 +5°C° 0 mm 3 mps 706 mmHg 88%
    21:00 +7°C° 0 mm 3 mps 706 mmHg 88%
    22:00 +7°C° 0 mm 3 mps 705 mmHg 89%
    23:00 +7°C° 0 mm 3 mps 705 mmHg 89%
    Show more